Content
SEND FEEDBACK

Daily
Averages
Monthly
Summary
Mauritania

PORT-ETIENNE, MAURITANIA


Home > Africa > Mauritania
Elevation: 10 feet     Latitude: 20 54N     Longitude: 017 06W

WEATHER
 
SELECT A DAY
Number of Records: 117,968;   Date Range: 7/1/96 - 8/19/14
 
SHARE

PRINT THIS DATA

[ ← Previous Day ]
WEATHER ALMANAC - JANUARY 23, 2013
[ Next Day → ]
[ °C ]   °F
Weather ElementAverageHighLow
Temperature64.6 °F73.4 °F (3:00 pm)59 °F (6:00 am)
Dewpoint48.7 °F57.2 °F (11:00 pm)44.6 °F (12:00 pm)
Humidity55.6 %82 % (11:00 pm)28 % (3:00 pm)
Barometer30.09 in30.19 in (12:00 pm)30.04 in (4:00 pm)
Wind Speed24.5 mph29.9 mph (7:00 am)
Weather ElementAverage
Visibility2.8 mi
Wind DirectionENE (72.7 °)

Weather ElementTotal
Precipitation---
Cooling Degree Days1.2 (Base 65)
Growing Degree Days16.2 (Base 50)
Averaged from 26 records on January 23, 2013
WEATHER CONDITIONS BREAKOUT
WIND DIRECTION BREAKOUT
WEATHER BY HOUR - JANUARY 23, 2013
[ °C ]   °F
Local TimeTemperatureDewpointHumidityBarometerVisibilityWind DirectionWind SpeedGust SpeedPrecipitationEventsConditions
12:00 AM64.4 °F53.6 °F68 %30.06 in5.0 miESE (110°)20.7 mph
1:00 AM64.4 °F51.8 °F64 %30.06 in5.0 miNorth (10°)24.2 mph
2:00 AM62.6 °F51.8 °F68 %30.06 in5.0 miNorth (10°)24.2 mph
3:00 AM61.0 °F52.0 °F65 %30.10 in5.0 miNorth21.9 mph
3:00 AM60.8 °F50.0 °F68 %30.06 in5.0 miNorth (10°)21.9 mph
4:00 AM60.8 °F48.2 °F63 %30.06 in5.0 miNNE (20°)24.2 mph
6:00 AM59.0 °F46.4 °F63 %30.09 in3.7 miNNE (20°)28.8 mphLow Drifting Sand
6:00 AM50.0 °F30.11 in4.0 miNorth (10°)28.8 mph
7:00 AM59.0 °F46.4 °F63 %30.09 in3.7 miNNE (30°)29.9 mphLow Drifting Sand
8:00 AM59.0 °F46.4 °F63 %30.09 in2.5 miNNE (30°)29.9 mphLow Drifting Sand
9:00 AM59.0 °F49.0 °F62 %30.16 in2.0 miNorth (10°)27.6 mphBlowing Sand
9:00 AM59.0 °F46.4 °F63 %30.12 in2.5 miNNE (30°)27.6 mphLow Drifting Sand
10:00 AM60.8 °F46.4 °F59 %30.15 in2.5 miNNE (30°)27.6 mphLow Drifting Sand
11:00 AM64.4 °F48.2 °F56 %30.18 in1.2 miNE (40°)26.5 mphLow Drifting Sand
12:00 PM66.0 °F48.0 °F41 %30.19 in6.0 miNNE (20°)26.5 mph
12:00 PM66.2 °F44.6 °F46 %30.15 in1.2 miNNE (30°)26.5 mphLow Drifting Sand
1:00 PM68.0 °F46.4 °F46 %30.12 in1.2 miNNE (30°)24.2 mphLow Drifting Sand
2:00 PM71.6 °F46.4 °F41 %30.09 in0.9 miNorth (10°)24.2 mphLow Drifting Sand
3:00 PM72.0 °F46.0 °F28 %30.08 in1.0 miNorth23.0 mphBlowing Sand
3:00 PM73.4 °F46.4 °F38 %30.09 in0.9 miNorth (10°)23.0 mphLow Drifting Sand
4:00 PM73.4 °F44.6 °F36 %30.04 in0.9 miNorth (10°)24.2 mphLow Drifting Sand
6:00 PM71.0 °F48.0 °F33 %30.06 in1.0 miNorth21.9 mphBlowing Sand
7:00 PM68.0 °F50.0 °F52 %30.04 in1.9 miNorth (350°)23.0 mphLow Drifting Sand
8:00 PM64.4 °F50.0 °F59 %30.06 in1.9 miNorth (360°)17.3 mphWidespread Dust
9:00 PM64.4 °F51.8 °F64 %30.06 in1.9 miNorth (360°)19.6 mphLow Drifting Sand
11:00 PM62.6 °F57.2 °F82 %30.09 in1.9 miNorth (350°)19.6 mphLow Drifting Sand
Hourly data recorded from GQPP, located miles away from Port-Etienne, Mauritania







STORIES FROM OUR PARTNERS